Showing default

PIAST-M, 66758

Orbit data source: Space-Track

PIAST-M, 66758 is a Polish payload satellite in SSO that was launched on Fri, 28 Nov 2025 UTC via an FALCON 9 launch vehicle from the Air Force Western Test Range (AFWTR). Payload-class satellites include a variety of spacecraft equipped with specific instruments for various scientific and technological missions. These include communications satellites like Starlink; space stations such as the ISS; scientific satellites like the Hubble; Earth observation satellites from companies like Planet Labs, Umbra, and HawkEye 360; GPS; miniature CubeSats for education and research; and military/defense satellites.

Loading next visibility...
Identifier
66758, 2025-276CW
Orbit
SSO
Country
Flag of PLPL / POL
Related business
Manufacturer
CREO
Mission
Operational Commercial Technology
Bus & Motor
CUBESAT 6U, Unknown motor
Mass
12 kg wet, 12 kg dry
Launch date (UTC)
2025-11-28 (2 months ago)
Launch vehicle
FALCON 9
Launch site
Air Force Western Test Range (AFWTR)
Object type
Payload
Rocket body
Debris
Shape & HBR
Box, 0.5 m
Radar Cross Section
0.575 m²

Expand to show TLE details & history
Last TLE update: 23 hours ago

TLE from 23 hours ago
0 PIAST-M
1 66758U 25276CW  26034.19235756  .00006259  00000-0  30465-3 0  9990
2 66758  97.4329 110.0897 0002507  81.8658 278.2860 15.18730427 10084
Epoch: 2026-02-03T04:36Z
TLE epoch observation values (Epoch: 2026-02-03T04:36:59.693Z)
Latitude
-0.00007°
Longitude
-92.53583°
Altitude
512.516 km
Speed
7.608 km/s
True Right ascension
07h 20m 21s
True Declination
0° 00' 00"
Sunlit
Object was in full shadow at epoch
Visualization orbit readout
Latitude
Unknown
Longitude
Unknown
Altitude
Unknown
Speed
Unknown
Apparent Right ascension
Unknown
Apparent Declination
Unknown
Sunlit
N/A
Visualization observer readout
Local Sidereal Time
05:36:05
Azimuth
Unknown
Elevation
Unknown
Doppler factor
Unknown
Orbital elements
Apogee altitude
508.371 km
Perigee altitude
504.919 km
Semi-major axis
6,884.782 km
Eccentricity
0.00025
Inclination
97.4329°
RAAN
110.0897°
Arg. of periapsis
81.8658°
True anomaly
278.25757°
Mean anomaly
278.286°
Eccentric anomaly
278.27179°
Mean motion
3.79934 °/min
Orbital period
94.75 mins
BSTAR
0.00030465
Loading maneuver chart data...
Computing Atmospheric mass density...
Loading historical data...
Loading historical data...
Loading historical data...
Loading historical data...
Loading historical data...
Loading historical data...
Loading historical data...

Documentation

Showing up to 5 results
|